Stations météo

réclame
Mon MeteoGroup
Mildenhall Royal Air Force Bas, Grande-Bretagne (3577): Température de l'air & dewpoint: 18.05.2019 02:00:00 - 24.05.2019 02:00:00 (BST)Mildenhall Royal Air Force Bas, Grande-Bretagne (3577): Vitesse du vent: 18.05.2019 02:00:00 - 24.05.2019 02:00:00 (BST)Mildenhall Royal Air Force Bas, Grande-Bretagne (3577): Direction du vent: 18.05.2019 02:00:00 - 24.05.2019 02:00:00 (BST)Mildenhall Royal Air Force Bas, Grande-Bretagne (3577): reduced air pressure: 18.05.2019 02:00:00 - 24.05.2019 02:00:00 (BST)Mildenhall Royal Air Force Bas, Grande-Bretagne (3577): visibility: 18.05.2019 02:00:00 - 24.05.2019 02:00:00 (BST)Mildenhall Royal Air Force Bas, Grande-Bretagne (3577): Quantités de précipitations: 18.05.2019 02:00:00 - 24.05.2019 02:00:00 (BST)
Date & Time tt [°C] td [°C] ff [km/h] ff [knt] dd ppp [hPa] vv [km] rr [mm]
24.05.2019 02:00:00 10,7 10,7 8 4 NNW 1014,9 10 -
24.05.2019 01:00:00 12,5 9,9 8 4 NNW 1014,9 10 -
24.05.2019 00:00:00 14,4 11,2 0 0 N 1014,5 10 -
23.05.2019 23:00:00 15,3 10,3 5 3 S 1014,5 10 -
23.05.2019 22:00:00 16,9 9,1 5 3 NNW 1014,5 10 -
23.05.2019 21:00:00 18,4 8,6 8 4 NNW 1014,2 10 -
23.05.2019 20:00:00 20,4 7,7 15 8 NW 1013,8 10 -
23.05.2019 19:00:00 21,6 7,0 15 8 NW 1013,8 10 -
23.05.2019 18:00:00 21,9 8,0 16 9 W 1014,2 10 -
23.05.2019 17:00:00 21,9 8,7 13 7 WNW 1014,2 10 -
23.05.2019 16:00:00 21,8 8,3 16 9 W 1014,5 10 -
23.05.2019 15:00:00 21,4 9,3 11 6 W 1014,9 10 -
23.05.2019 14:00:00 20,1 9,3 15 8 W 1015,5 10 -
23.05.2019 13:00:00 19,7 9,3 16 9 SW 1015,9 10 -
23.05.2019 12:00:00 18,9 9,4 15 8 SW 1016,2 10 -
23.05.2019 11:00:00 17,5 11,3 8 4 WSW - 10 -
23.05.2019 10:00:00 16,1 12,1 5 3 W 1016,9 10 -
23.05.2019 09:00:00 14,8 12,1 0 0 N 1017,2 10 -
23.05.2019 08:00:00 12,8 12,5 5 3 WSW 1017,2 10 -
23.05.2019 07:00:00 10,6 10,6 8 4 WSW 1016,9 10 -
23.05.2019 06:00:00 8,5 8,5 5 3 WSW 1016,6 10 -
23.05.2019 05:00:00 9,0 9,0 0 0 N 1016,6 10 -
23.05.2019 04:00:00 9,5 8,6 8 4 SW 1016,5 10 -
23.05.2019 03:00:00 10,3 10,3 0 0 N 1016,9 10 -
23.05.2019 02:00:00 11,1 11,1 8 4 SW 1017,2 10 -
23.05.2019 01:00:00 12,6 12,6 11 6 SSW 1016,9 10 -
23.05.2019 00:00:00 13,0 13,0 5 3 S 1017,2 10 -
22.05.2019 23:00:00 14,0 9,0 0 0 N 1017,2 10 -
22.05.2019 22:00:00 13,7 11,4 8 4 SSE 1017,6 10 -
22.05.2019 21:00:00 16,9 5,2 0 0 N 1017,6 10 -
22.05.2019 20:00:00 16,6 6,1 13 7 W 1017,2 10 -
22.05.2019 19:00:00 19,1 4,8 15 8 W 1017,6 10 -
22.05.2019 18:00:00 19,3 5,4 13 7 W 1017,9 10 -
22.05.2019 17:00:00 19,7 6,1 16 9 W 1018,3 10 -
22.05.2019 16:00:00 19,5 6,6 16 9 WSW 1018,6 10 -
22.05.2019 15:00:00 19,2 6,3 16 9 WSW 1018,9 10 -
22.05.2019 14:00:00 18,2 5,4 15 8 W 1019,3 10 -
22.05.2019 13:00:00 18,0 7,0 11 6 WSW - 10 -
22.05.2019 12:00:00 16,8 4,5 15 8 SW 1019,6 10 -
22.05.2019 11:00:00 16,8 6,3 9 5 SSW 1019,9 10 -
22.05.2019 10:00:00 15,5 6,8 0 0 N 1019,9 10 -
22.05.2019 09:00:00 13,4 8,2 0 0 N - 10 -
22.05.2019 08:00:00 11,6 9,5 8 4 WNW - 10 -
22.05.2019 07:00:00 9,2 9,2 5 3 WSW 1019,9 10 -
22.05.2019 06:00:00 5,0 5,0 4 2 SW - 10 -
22.05.2019 05:00:00 5,4 5,4 5 3 SSW 1019,6 10 -
22.05.2019 04:00:00 5,6 5,6 5 3 SW 1019,9 10 -
22.05.2019 03:00:00 6,8 6,7 9 5 W 1019,6 10 -
22.05.2019 02:00:00 7,6 7,6 5 3 SW - 10 -
22.05.2019 01:00:00 8,3 8,3 8 4 SW 1018,9 10 -
22.05.2019 00:00:00 10,5 10,5 8 4 W 1018,9 10 -
21.05.2019 23:00:00 13,5 13,5 9 5 NW 1018,9 10 -
21.05.2019 22:00:00 14,2 7,3 21 11 WNW 1018,9 10 -
21.05.2019 21:00:00 17,0 8,0 16 9 NW 1018,6 3,2 -
21.05.2019 20:00:00 17,3 9,0 5 3 NNE 1017,9 10 -
21.05.2019 19:00:00 18,4 8,4 5 3 N 1017,9 10 -
21.05.2019 18:00:00 18,6 7,4 11 6 N 1017,6 10 -
21.05.2019 17:00:00 19,0 7,1 13 7 N 1017,6 10 -
21.05.2019 16:00:00 20,4 6,7 13 7 WNW - 10 -
21.05.2019 15:00:00 19,1 8,1 18 10 NW 1017,9 10 -
21.05.2019 14:00:00 18,0 8,0 15 8 NNW 1017,6 10 -
21.05.2019 13:00:00 18,8 9,3 13 7 NNW 1017,6 10 -
21.05.2019 12:00:00 18,1 11,6 13 7 NW 1017,6 10 -
21.05.2019 11:00:00 16,4 14,0 16 9 NNW 1017,6 10 -
21.05.2019 10:00:00 15,3 15,0 15 8 NW 1017,6 10 -
21.05.2019 09:00:00 13,3 13,3 15 8 WNW 1017,2 10 -
21.05.2019 08:00:00 10,6 10,6 13 7 NW 1017,2 10 -
21.05.2019 07:00:00 8,3 8,3 9 5 W 1016,9 10 -
21.05.2019 06:00:00 6,7 6,7 0 0 N 1016,6 0,2 -
21.05.2019 05:00:00 7,1 7,1 0 0 N 1016,2 0,2 -
21.05.2019 04:00:00 8,0 8,0 0 0 N 1015,9 0,6 -
21.05.2019 03:00:00 8,0 8,0 5 3 NW - 5 -
21.05.2019 02:00:00 7,8 7,8 9 5 NW 1015,2 10 -
21.05.2019 01:00:00 9,3 9,3 5 3 WNW 1015,2 10 -
21.05.2019 00:00:00 9,9 9,9 0 0 N 1014,9 10 -
20.05.2019 23:00:00 11,6 11,6 0 0 N 1014,9 10 -
20.05.2019 22:00:00 12,7 12,7 8 4 NNE - 10 -
20.05.2019 21:00:00 14,6 13,6 5 3 N 1013,8 10 -
20.05.2019 20:00:00 15,9 12,4 8 4 NNW - 10 -
20.05.2019 19:00:00 17,5 11,5 8 4 NNW 1013,2 10 -
20.05.2019 18:00:00 19,0 10,5 15 8 NNW - 10 -
20.05.2019 17:00:00 18,2 10,8 15 8 NNE 1012,8 10 -
20.05.2019 16:00:00 18,2 11,3 9 5 N 1012,8 10 -
20.05.2019 15:00:00 18,8 12,1 13 7 NNE - 10 -
20.05.2019 14:00:00 18,2 15,3 18 10 N 1012,8 10 -
20.05.2019 13:00:00 16,0 12,0 11 6 N 1012,5 10 -
20.05.2019 12:00:00 14,0 12,0 15 8 N - 9 -
20.05.2019 11:00:00 14,1 14,1 9 5 N 1012,5 9 -
20.05.2019 10:00:00 12,0 12,0 13 7 NW - 9 -
20.05.2019 09:00:00 12,3 12,3 11 6 NNW 1011,8 9 -
20.05.2019 08:00:00 11,6 11,6 16 9 NW 1011,5 10 -
20.05.2019 07:00:00 11,3 11,3 11 6 WNW 1011,1 6 -
20.05.2019 06:00:00 10,9 10,9 5 3 N 1010,8 5 -
20.05.2019 05:00:00 10,9 10,9 5 3 N 1010,8 6 -
20.05.2019 04:00:00 10,9 10,9 8 4 NW - 10 -
20.05.2019 03:00:00 11,0 11,0 4 2 NNW 1010,6 10 -
20.05.2019 02:00:00 11,4 11,4 0 0 N 1010,8 10 -
20.05.2019 01:00:00 11,7 11,7 5 3 WNW 1010,8 10 -
20.05.2019 00:00:00 12,0 12,0 0 0 N 1011,1 10 0,0
19.05.2019 23:00:00 11,8 11,8 0 0 N 1011,1 10 -
19.05.2019 22:00:00 13,0 10,0 9 5 E 1010,5 10 -
19.05.2019 21:00:00 14,2 13,7 13 7 ENE 1010,5 10 -
19.05.2019 20:00:00 15,6 14,8 13 7 ENE 1009,8 10 -
19.05.2019 19:00:00 17,0 16,0 13 7 E - 10 -
19.05.2019 18:00:00 17,7 13,0 9 5 NE 1009,4 10 -
19.05.2019 17:00:00 18,0 13,0 9 5 E 1009,4 10 -
19.05.2019 16:00:00 18,0 13,0 0 0 N 1009,8 10 -
19.05.2019 15:00:00 17,0 14,0 5 3 NE 1009,8 10 -
19.05.2019 14:00:00 18,0 15,0 9 5 N 1009,8 10 -
19.05.2019 13:00:00 16,6 16,4 5 3 NW 1010,1 10 -
19.05.2019 12:00:00 14,0 14,0 0 0 N 1010,1 10 -
19.05.2019 11:00:00 13,0 13,0 5 3 WNW 1010,1 9 -
19.05.2019 10:00:00 11,0 11,0 5 3 WNW 1010,1 6 -
19.05.2019 09:00:00 9,7 9,7 0 0 N 1009,8 2,6 -
19.05.2019 08:00:00 8,6 8,6 0 0 N 1009,5 0,2 -
19.05.2019 07:00:00 8,0 8,0 0 0 N 1008,8 0,2 -
19.05.2019 06:00:00 7,9 7,9 5 3 W 1008,8 0,2 -
19.05.2019 05:00:00 8,1 8,1 0 0 N 1008,8 - -
19.05.2019 04:00:00 8,4 8,4 0 0 N 1008,8 0,4 -
19.05.2019 03:00:00 7,5 7,5 8 4 WNW 1008,4 0,6 -
19.05.2019 02:00:00 9,0 9,0 0 0 N 1008,1 4,4 -
19.05.2019 01:00:00 10,3 10,3 0 0 N 1008,4 9 -
19.05.2019 00:00:00 12,0 11,0 0 0 N - 9 -
18.05.2019 23:00:00 12,0 12,0 0 0 N 1008,4 10 -
18.05.2019 22:00:00 12,8 12,8 5 3 ESE 1008,1 10 -
18.05.2019 21:00:00 13,1 13,1 5 3 E 1007,6 10 -
18.05.2019 20:00:00 13,9 13,9 9 5 E 1007,4 10 -
18.05.2019 19:00:00 14,4 14,4 8 4 E 1007,1 10 0,0
18.05.2019 18:00:00 15,6 14,3 0 0 N 1006,7 10 0,0
18.05.2019 17:00:00 17,0 15,0 0 0 N - 10 -
18.05.2019 16:00:00 15,0 15,0 5 3 NW 1006,7 10 -
18.05.2019 15:00:00 14,6 14,4 8 4 WNW 1006,4 10 0,0
18.05.2019 14:00:00 16,2 12,5 0 0 N 1006,4 10 -
18.05.2019 13:00:00 14,5 14,5 5 3 S 1006,4 10 -
18.05.2019 12:00:00 13,8 13,8 8 4 SSW - 10 -
18.05.2019 11:00:00 13,0 13,0 0 0 N 1006,4 10 -
18.05.2019 10:00:00 12,9 12,9 0 0 N 1006,1 10 -
18.05.2019 09:00:00 12,0 12,0 0 0 N 1006,1 10 -
18.05.2019 08:00:00 11,4 11,4 5 3 E 1006,1 10 -
18.05.2019 07:00:00 10,7 10,7 5 3 ESE 1005,7 10 -
18.05.2019 06:00:00 10,4 10,4 0 0 N 1005,7 10 -
18.05.2019 05:00:00 - - 0 0 N - 10 -
18.05.2019 04:00:00 10,5 10,5 0 0 N 1005,7 6 -
18.05.2019 03:00:00 10,0 10,0 0 0 N 1006,1 5 -
18.05.2019 02:00:00 10,5 10,5 5 3 N 1006,4 9 -

tt = Température de l'air
td = dewpoint
ff = Vitesse du vent
dd = Direction du vent
ppp = reduced air pressure
vv = visibility
rr = Quantités de précipitations

stations d'obs. à proximité